{"data":{"norad_id":64362,"intl_designator":"2025-126U","name":"STARLINK-34335","alt_names":[],"object_type":"PAYLOAD","status":"ACTIVE","operator":null,"country":"US","launch_date":"2025-06-13","launch_site_code":"AFWTR","launch_vehicle":null,"mission":null,"orbit_class":"UNKNOWN","rcs_meters":null,"size_class":null,"mass_kg":null,"dimensions":null,"purposes":["comms"],"wikipedia_slug":null,"has_3d_model":false,"image_url":null,"decayed_at":null,"tle_current":{"epoch":"2026-05-25T02:55:31.522368Z","epoch_age_seconds":64553,"freshness":"FRESH","line1":"1 64362U 25126U   26145.12189262  .00002028  00000+0  17772-3 0  9994","line2":"2 64362  70.0004 201.6239 0003864 266.0091  94.0626 14.98336582 52139","mean_motion":14.98336582,"eccentricity":0.0003864,"inclination_deg":70.0004,"raan_deg":201.6239,"arg_perigee_deg":266.0091,"mean_anomaly_deg":94.0626,"bstar":0.00017772,"rev_number":5213,"period_min":96.10657694,"perigee_km":569.34999005869,"apogee_km":574.72108339507,"semimajor_km":6950.1725367269,"source":"CELESTRAK","updated_at":"2026-05-25T13:38:20.405534Z"}}}